Regional Weather Roundup
Issued by NWS

Home | Current Version | Previous Version | Graphics & Text | Print | Product List | Glossary Off
Versions: 1 2 3 4 5 6 7 8 9 10 11 12 13 14 15 16 17 18 19 20 21 22 23 24 25 26 27 28 29 30 31 32 33 34 35 36 37 38 39 40 41 42 43 44 45 46 47 48 49 50

000
ASUS43 KMKX 300000
RWRWI

WISCONSIN REGIONAL WEATHER ROUNDUP
NATIONAL WEATHER SERVICE MILWAUKEE/SULLIVAN WI
700 PM CDT SAT AUG 29 2015

NOTE: "FAIR" INDICATES FEW OR NO CLOUDS BELOW 12,000 FEET WITH NO
SIGNIFICANT WEATHER AND/OR OBSTRUCTIONS TO VISIBILITY.

WIZ001-002-006>008-014>016-023>028-300100-
NORTHWEST WISCONSIN

CITY           SKY/WX    TMP DP  RH WIND       PRES   REMARKS
SUPERIOR ARPT  MOCLDY    74  65  72 SW5       29.97F
ASHLAND        MOCLDY    72  66  81 S6        29.99S
6HR MIN TEMP:  72; 6HR MAX TEMP:  79;

HAYWARD        MOCLDY    71  63  75 S7        30.03S
6HR MIN TEMP:  71; 6HR MAX TEMP:  74;

SIREN          CLEAR     72  62  71 SW3       30.02F
CUMBERLAND     MOCLDY    70  61  73 S5        30.03F
RICE LAKE      MOCLDY    71  62  72 S3        30.05S
CHETEK         MOCLDY   N/A N/A N/A S3        30.04S
LADYSMITH      PTCLDY    71  62  74 S7        30.05F
EAU CLAIRE     NOT AVBL
MENOMONIE      MOCLDY    71  63  75 CALM      30.04F
NEW RICHMOND   PTCLDY    69  62  77 SW3       30.04S
OSCEOLA        CLEAR     70  61  73 S5        30.05S
$$

WIZ003>005-009-010-017-018-300100-
NORTH CENTRAL WISCONSIN

CITY           SKY/WX    TMP DP  RH WIND       PRES   REMARKS
MANITOWISH WTR MOCLDY    71  63  76 CALM      30.03S
ARBOR VITAE    CLOUDY    72  64  74 S6        30.04S
WOODRUFF       CLOUDY    72  64  74 S6        30.04S
RHINELANDER    CLEAR     70  60  70 SW6       30.05S
6HR MIN TEMP:  68; 6HR MAX TEMP:  75;

EAGLE RIVER    CLEAR     71  57  61 W6        30.03S
LAND O LAKES   MOCLDY    73  60  62 W3        30.04R
PHILLIPS       PTCLDY    71  63  76 SW6       30.03F
TOMAHAWK       CLEAR     68  61  77 CALM      30.05F
MEDFORD        PTCLDY    66  62  85 S5        30.06S
MERRILL        CLEAR     68  62  80 SW6       30.06R
$$

WIZ029-030-035-036-043>047-300100-
CENTRAL WISCONSIN

CITY           SKY/WX    TMP DP  RH WIND       PRES   REMARKS
WAUSAU         CLOUDY    66  60  81 SW5       30.04S
6HR MIN TEMP:  64; 6HR MAX TEMP:  68;

MOSINEE        CLOUDY    64  61  88 S5        30.07S
MARSHFIELD     CLOUDY    66  57  72 CALM      30.06S
6HR MIN TEMP:  65; 6HR MAX TEMP:  67;

STEVENS POINT  CLOUDY    63  58  86 CALM      30.06F
WAUPACA        CLOUDY    69  64  82 N3        30.04F
WAUTOMA        NOT AVBL
WISC RAPIDS    CLOUDY    67  59  75 E5        30.06
6HR MIN TEMP:  67; 6HR MAX TEMP:  69;

CAMP DOUGLAS   NOT AVBL
$$

WIZ011>013-019>022-031-037>040-048>050-300100-
NORTHEAST WISCONSIN

CITY           SKY/WX    TMP DP  RH WIND       PRES   REMARKS
ANTIGO         CLEAR     66  60  80 SW5       30.06S
SHAWANO        MOCLDY    69  62  79 W5        30.04F
OCONTO         CLEAR     69  64  84 CALM      30.03F
STURGEON BAY   PTCLDY    64  59  82 S5        30.06F
6HR MIN TEMP:  64; 6HR MAX TEMP:  68;

GREEN BAY      CLOUDY    68  62  81 NE5       30.03F
6HR MIN TEMP:  67; 6HR MAX TEMP:  72;

MANITOWOC      NOT AVBL
APPLETON       CLOUDY    68  61  77 VRB3      30.02F
CLINTONVILLE   CLOUDY    68  61  77 W3        30.04F
OSHKOSH        CLOUDY    69  61  75 CALM      30.03S
6HR MIN TEMP:  65; 6HR MAX TEMP:  71;

$$

WIZ032>034-041-042-053>061-300100-
SOUTHWEST WISCONSIN

CITY           SKY/WX    TMP DP  RH WIND       PRES   REMARKS
LA CROSSE      CLOUDY    70  61  73 E3        30.03F
6HR MIN TEMP:  68; 6HR MAX TEMP:  75;

SPARTA         CLOUDY    69  59  71 CALM      30.05S
VIROQUA          N/A     68  64  86 CALM      30.05S
BOSCOBEL       CLOUDY    71  64  78 CALM      30.03S
6HR MIN TEMP:  70; 6HR MAX TEMP:  72;

PRAIRIE DU CHI CLOUDY    69  61  75 E6        30.03S
PLATTEVILLE    CLOUDY    69  65  86 NE8       30.03S
$$

WIZ056-057-062-063-064-067-068-300100-
SOUTH CENTRAL WISCONSIN

CITY           SKY/WX    TMP DP  RH WIND       PRES   REMARKS
REEDSBURG      CLOUDY    68  62  82 NE3       30.04S
BARABOO/DELLS  CLOUDY    68  61  78 NE3       30.04S
LONE ROCK      NOT AVBL
MINERAL POINT  CLOUDY    70  63  78 CALM      30.04S
MADISON        CLOUDY    67  63  87 CALM      30.03S
6HR MIN TEMP:  67; 6HR MAX TEMP:  69;

MIDDLETON      CLOUDY    68  65  92 CALM      30.04S
WATERTOWN      CLOUDY    65  65 100 CALM      30.03S
MONROE         CLOUDY    66  63  88 N8        30.03F
JANESVILLE     LGT RAIN  68  66  94 N5        30.02R FOG
$$

WIZ051-052-058>065-066-070>072-300100-
SOUTHEAST WISCONSIN

CITY           SKY/WX    TMP DP  RH WIND       PRES   REMARKS
MILWAUKEE      DRZL/FOG  62  61  96 N7        30.03R VSB 1/2
6HR MIN TEMP:  59; 6HR MAX TEMP:  64; 6HR PCP: TRACE;

WAUKESHA       CLOUDY    61  61 100 N3        30.05S FOG
MILWAUKEE/TIMM NOT AVBL
RACINE         LGT RAIN  61  59  93 N6        30.04S VSB 3/4
6HR MIN TEMP:  61; 6HR MAX TEMP:  65; 6HR PCP: TRACE;

BURLINGTON     CLOUDY    62  61  97 N5        30.03R FOG
KENOSHA        CLOUDY    64  62  93 N5        30.02S FOG
6HR MIN TEMP:  64; 6HR MAX TEMP:  68;

FOND DU LAC    CLOUDY    68  62  81 E3        30.03F
6HR MIN TEMP:  66; 6HR MAX TEMP:  72;

SHEBOYGAN      CLOUDY    65  61  87 SE3       30.04F
6HR MIN TEMP:  64; 6HR MAX TEMP:  68;

WEST BEND      CLOUDY    63  59  88 CALM      30.05S
JUNEAU         CLOUDY    67  62  85 CALM      30.04F
$$

LSZ147-162-300100-
LAKE SUPERIOR

STATION/POSITION TIME  TEMP    WIND        PRES    WAVE
                       AIR SEA DIR/SP/G            HT/PER
                 (UTC) (F)     (DEG/KT/KT) (MB)    (FT/S)
W MID LAKE BUOY  2250   59 55  230/  6/  6 1015.0S   1/ 4
DEVILS ISLAND    2300   65     240/  9/ 10 1015.1F
PORT WING        2340   68      CALM  /  3 1014.9F
SAXON HARBOR     2340   70        CALM     1014.6F
$$

LMZ867-665-643>646-300100-
LAKE MICHIGAN

STATION/POSITION TIME  TEMP    WIND        PRES    WAVE
                       AIR SEA DIR/SP/G            HT/PER
                 (UTC) (F)     (DEG/KT/KT) (MB)    (FT/S)
CHAMBERS ISLAND  2300   68     190/  3/  8 1017.3S
S GREEN BAY BUOY 2300   64 64  100/  4/  4 1018.6F
N MID LAKE BUOY  2250   65 65  210/  8/ 10 1017.1F   0
NORTHPORT PIER   2300   67     160/  5/  7 1016.9S
SISTER BAY       2319   68     190/  9/ 10   N/A
ALGOMA LAKESHORE 2329          360/ 12       N/A
SHEBOYGAN LAKESH 2300   60     180/  1/  2 1017.8R
PORT WASHINGTON  2340   58      30/  3/  4 1017.9S
ATWATER BUOY     2300   53 48  350/  8/ 10 1018.3R
MILWAUKEE LAKESH 2300   60     360/  6/  7   N/A
S MID LAKE BUOY  2250   68 69  110/ 10/ 10 1015.9F   2/ 3
KENOSHA   LAKESH 2300   63     350/  6/  8 1016.3S
$$

TC  - TEMPERATURE IN CELSIUS
VSB - VISIBILITY IN STATUTE MILES
WCI - WIND CHILL INDEX
HX  - HEAT INDEX




USA.gov is the U.S. government's official web portal to all federal, state and local government web resources and services.